Regional Weather Roundup
Issued by NWS Spokane, WA

Home | Current Version | Previous Version | Text Only | Print | Product List | Glossary On
Versions: 1 2 3 4 5 6 7 8 9 10 11 12 13 14 15 16 17 18 19 20 21 22 23 24 25 26 27 28 29 30 31 32 33 34 35 36 37 38 39 40 41 42 43 44 45 46 47 48 49 50
972
NZUS01 KOTX 301825
RWROTX

Eastern Washington/Northern Idaho Roundup
National Weather Service, Spokane WA
1100 AM PDT FRI SEP 30 2016

Note: "fair" indicated few or no clouds below 12,000 feet with no
significant weather and/or obstructions to visibility.

...Northeast Washington and Northern Idaho Panhandle...

CITY           SKY/WX    TMP DP  RH WIND       PRES   REMARKS
Spokane Intl   PTSUNNY   66  44  45 CALM      29.98F
Spokane Downto PTSUNNY   66  50  56 CALM      29.98F
Coeur d Alene  CLOUDY    62  55  77 NW5       29.99S
Deer Park      MOSUNNY   66  45  46 VRB3      29.99F
Sandpoint      PTSUNNY   63  52  67 N3        29.97F
Bonners Ferry  MOCLDY    64  54  68 SE3       29.99F

...Southeast Washington and southern Idaho Panhandle...

CITY           SKY/WX    TMP DP  RH WIND       PRES   REMARKS
Walla Walla    SUNNY     66  40  38 W3        29.96F
Pullman/Moscow SUNNY     67  42  40 CALM      30.00F
Lewiston       SUNNY     70  49  47 CALM      29.95F
Lowell           N/A     68  52  56 CALM      29.96F
Grangeville    FAIR      72  45  37 CALM      30.01F

...Columbia Basin...

CITY           SKY/WX    TMP DP  RH WIND       PRES   REMARKS
Ephrata        LGT RAIN  59  47  64 N6        29.95S
Moses Lake     LGT RAIN  59  48  67 SE6       29.96S
Pasco          PTSUNNY   71  39  31 S7        29.94F
Richland       MOCLDY    71  42  34 SW3       29.93F
Hermiston      MOSUNNY   68  37  32 W5        29.95F
Pendleton      MOSUNNY   67  33  28 N5        29.96F

...East Slopes Cascades...

CITY           SKY/WX    TMP DP  RH WIND       PRES   REMARKS
The Dalles     SUNNY     68  38  33 NW8       29.95F
Yakima         SUNNY     67  35  30 VRB3      29.95F
Ellensburg     SUNNY     64  36  35 W9        29.95F
Stampede Pass  SUNNY     46  35  65 VRB6      30.00F
Wenatchee      SUNNY     64  39  39 NW7       29.94F
Omak           MOSUNNY   63  42  46 CALM      29.96S
Chelan           N/A     61  43  51 N6          N/A
Sunnyside      PTCLDY    62  47  58 CALM      29.94F

...Southern British Columbia...

CITY           SKY/WX    TMP DP  RH WIND       PRES   REMARKS
Penticton      MOSUNNY   63  46  55 NW6       29.95F
Castlegar      PTSUNNY   59  50  72 CALM      29.98S
Cranbrook      PTSUNNY   59  50  72 VRB2      30.01
Osoyoos          N/A     63  46  55 W1          N/A
Creston          N/A     63  52  67 E3          N/A

...Western Montana...

CITY           SKY/WX    TMP DP  RH WIND       PRES   REMARKS
Kalispell      CLEAR     64  51  62 CALM      30.01F
Libby            N/A     61  55  82 W5        30.01F
Missoula       SUNNY     69  46  43 SE6       30.03F

...Neighboring Cities...

CITY           SKY/WX    TMP DP  RH WIND       PRES   REMARKS
Seattle        CLOUDY    51  46  83 CALM      30.04F HAZE
Portland       CLOUDY    51  48  89 CALM      30.05S
Boise          SUNNY     81  42  25 SE15      30.04F
Great Falls    MOSUNNY   67  49  52 CALM      30.03F
Calgary        CLOUDY    52  46  82 N6        29.99F



USA.gov is the U.S. government's official web portal to all federal, state and local government web resources and services.